Location: Antichan
(42.9728°N, 0.6667°E)
Time: 10:17:29
(UTC+00:00)

Landsat 7 - Pass Details

Date: 15 August 2020
Orbit: 701 x 703 km, 98.1° (Epoch: 19 September)

Event Time Altitude Azimuth Distance (km) Brightness Sun altitude
Exits shadow 21:15:20 43° 184° (S) 988 4.2 -21.7°
Maximum altitude 21:16:51 73° 257° (WSW) 737 3.9 -21.9°
Drops below altitude 10° 21:21:38 10° 343° (NNW) 2,179 7.2 -22.5°
Sets 21:23:55 0° 346° (NNW) 3,101 8.2 -22.8°
